User: anonymous   Login
Location: *
(40.4270°N, 9.4940°E)
Time: 03:59:32
(UTC+01:00)
Language:

Okean 2 - Orbit

View from above orbital plane
View from above orbital plane
View from above satellite
View from above satellite

Ground track
Ground track

The orbit data is extracted from the following two-line orbital elements,

1 20510U 90018A   17023.36964810  .00000433  00000-0  33581-4 0  9990
2 20510  82.5179 310.4906 0013815 108.5642  31.0292 14.98798836459759
Epoch (UTC): 23 January 2017 08:52:17
Eccentricity: 0.0013815
inclination: 82.5179°
perigee height: 561 km
apogee height: 580 km
right ascension of ascending node: 310.4906°
argument of perigee: 108.5642°
revolutions per day: 14.98798836
mean anomaly at epoch: 31.0292°
orbit number at epoch: 45975

The dashed part of the orbit path shows where the satellite is in the earth's shadow,  

DLR